Theta_e
319 319 319 318 317 316 316 316 315 315 315 315 315 314 313 313 312 316 316 317 316 316 317 318 319 319 318 319 318 319 321 322 323 322 322 320 320 320 320 320 325 332 332 344 347
319 319 319 318 317 316 316 316 315 315 315 315 314 313 312 311 314 316 316 315 314 314 318 319 320 320 320 319 318 318 320 321 320 320 321 320 319 320 320 322 322 322 325 342 345
318 319 318 317 317 316 316 315 315 315 315 315 313 313 312 311 316 315 314 315 315 315 315 316 319 320 320 319 318 319 319 320 319 318 319 320 319 320 321 323 323 323 323 327 340
317 317 317 317 317 316 316 315 315 315 315 314 312 312 311 316 314 316 313 314 315 315 315 316 318 319 319 320 320 318 319 319 318 318 319 320 322 322 322 323 324 324 323 323 335
315 315 316 316 316 315 315 315 315 315 315 313 313 313 314 315 314 313 314 314 316 315 316 318 319 319 318 319 320 320 319 320 320 320 321 321 322 322 322 324 324 323 321 322 326
314 314 314 315 315 315 315 315 315 316 315 313 315 315 316 314 312 315 313 315 316 317 317 318 320 320 321 321 321 321 321 321 321 322 322 322 322 322 323 323 323 321 322 324 323
315 314 314 314 314 314 314 315 316 316 314 313 317 317 317 314 313 315 315 315 316 316 317 316 318 320 321 321 322 322 322 321 321 321 321 321 322 323 323 323 321 323 324 324 326
318 317 315 314 314 314 315 316 316 315 313 317 316 317 316 315 315 315 315 316 315 315 315 314 315 318 321 321 321 322 320 322 321 321 321 321 323 324 324 322 324 325 325 324 324
317 318 318 316 315 316 317 317 316 314 316 317 317 317 316 316 316 316 317 318 319 319 317 317 316 317 320 321 322 322 324 323 322 321 322 322 323 324 322 323 325 325 326 325 324
317 317 318 318 317 318 318 316 315 315 316 317 316 317 316 315 317 317 319 319 322 321 321 320 318 318 319 322 327 326 324 324 323 322 323 323 324 324 324 325 325 325 325 325 325
319 316 316 317 319 319 317 316 317 319 317 315 317 317 319 318 316 317 319 320 322 323 325 322 323 324 323 321 322 323 322 322 322 322 322 323 324 325 325 325 325 325 325 326 325
320 318 317 316 318 318 317 316 315 318 320 318 317 317 317 318 321 318 320 323 324 327 325 325 327 326 324 320 320 321 321 322 322 322 323 325 326 326 325 325 325 325 325 326 325
321 320 319 317 318 318 317 316 317 317 320 321 320 321 321 319 322 323 319 321 323 326 326 328 327 322 324 321 320 321 322 323 324 323 324 326 328 327 325 324 325 324 323 324 326
321 321 320 318 318 317 318 316 318 319 327 325 323 323 321 321 324 321 321 322 324 325 325 326 325 325 324 323 322 323 322 321 323 325 329 325 330 327 327 326 326 324 325 326 327
321 322 320 319 318 318 317 317 317 317 330 325 323 319 320 323 321 321 319 322 326 325 323 325 323 324 326 325 323 325 324 324 324 325 326 326 328 328 327 327 327 325 326 327 327
322 322 321 319 318 319 318 317 317 320 328 325 321 322 322 321 321 321 321 320 321 324 324 324 322 321 323 322 323 322 323 322 323 326 331 328 329 329 329 328 327 327 327 327 326
322 322 321 318 317 318 318 317 318 324 320 325 324 322 323 324 323 323 324 325 327 328 328 325 325 323 321 322 321 323 325 331 332 332 332 327 329 328 326 325 326 327 328 328 325
322 322 317 319 319 318 318 314 322 323 322 320 322 323 325 324 324 324 325 327 324 325 326 327 327 325 323 323 325 324 326 331 333 331 330 326 330 328 325 324 324 325 328 328 327
321 316 316 317 318 318 320 318 324 323 321 321 323 325 325 324 324 325 326 326 325 324 326 327 326 323 323 323 324 326 327 325 329 328 331 328 326 326 325 325 326 327 329 328 327
317 313 310 315 317 318 322 317 320 318 317 319 323 321 324 323 323 325 326 323 324 323 323 324 324 322 323 323 323 325 324 327 328 334 332 326 326 327 327 327 327 329 330 328 326
313 314 305 310 315 319 317 315 317 317 316 318 320 321 321 322 322 323 321 320 321 323 322 323 324 321 321 324 324 325 326 325 326 328 330 330 327 325 326 326 328 329 328 326 326
311 314 302 307 314 305 314 315 316 317 316 317 317 319 319 319 319 320 320 319 316 320 324 323 324 323 320 319 320 320 323 325 332 327 329 331 331 323 324 324 326 327 327 325 324
309 303 301 303 312 308 307 313 316 318 317 317 319 318 317 318 320 319 318 316 315 316 322 322 324 323 320 320 321 321 320 320 323 327 327 330 328 321 323 323 325 327 326 325 323
305 307 302 302 300 309 308 310 313 309 311 314 316 317 318 319 318 319 319 316 315 315 314 315 319 320 320 319 319 322 321 320 322 328 328 328 324 322 323 323 324 326 326 323 321
302 305 305 307 304 308 311 308 310 310 307 309 310 316 318 319 319 319 318 317 316 315 316 317 320 319 318 318 318 319 319 318 319 320 326 323 323 323 323 323 323 324 324 320 319
300 303 302 304 306 306 308 307 310 308 308 308 309 309 310 313 316 315 315 315 316 312 317 314 318 318 320 317 318 321 319 317 317 318 318 320 321 320 319 316 320 322 323 321 320
298 299 305 304 305 310 309 308 310 307 303 307 309 309 310 308 307 307 306 307 308 311 314 314 316 317 319 316 317 320 318 319 318 318 319 321 319 317 317 317 316 317 317 317 315
Wind_Speed
24 21 19 16 14 11 9 8 7 9 10 13 16 17 20 24 27 11 7 2 2 2 3 4 3 4 4 4 3 3 6 9 6 6 5 7 4 0 7 8 4 7 11 8 3
26 23 20 18 15 13 11 9 8 9 10 11 15 18 19 23 20 13 5 7 3 4 1 4 1 3 4 3 4 7 6 7 3 2 3 6 8 10 8 7 9 14 9 5 6
28 25 22 19 17 14 12 10 9 9 10 11 14 17 19 19 10 3 8 6 1 3 2 3 3 4 6 5 7 4 9 5 8 10 9 9 10 5 12 12 3 9 13 9 11
29 27 24 22 18 15 13 11 9 9 10 11 12 16 16 6 5 2 8 5 5 5 4 6 7 9 7 9 6 10 14 13 7 5 7 10 12 14 18 18 16 15 15 15 11
30 28 26 24 20 17 14 12 10 9 9 9 11 13 7 5 7 3 7 6 5 4 6 6 7 6 9 5 6 14 15 11 12 14 15 14 18 17 22 21 18 13 12 16 19
32 29 27 25 22 19 16 13 10 9 8 8 8 11 4 11 1 3 4 3 2 2 3 3 1 2 6 7 9 5 12 16 15 18 13 18 20 17 14 10 9 8 11 13 18
33 31 29 26 23 20 16 13 11 8 7 5 5 5 7 14 3 6 6 5 4 4 5 3 4 7 1 6 6 10 15 18 19 16 15 10 14 15 16 6 10 12 11 12 14
34 32 29 27 23 20 17 14 10 8 5 3 5 4 8 9 8 14 13 15 13 13 12 12 10 9 8 4 7 7 13 14 3 4 7 8 20 20 3 6 7 14 16 12 14
35 33 30 28 24 21 17 13 9 5 3 2 3 3 9 5 7 4 8 4 8 5 7 4 6 10 4 11 11 10 16 20 18 9 12 12 18 4 5 14 20 19 18 16 15
37 34 32 28 26 21 17 11 7 3 3 2 5 6 8 3 2 6 7 10 4 10 7 6 7 9 10 13 16 19 16 15 12 5 12 20 26 22 20 21 21 20 18 16 16
39 36 33 30 27 25 23 12 5 5 9 11 7 5 3 1 2 8 7 9 8 7 8 7 10 15 22 21 24 23 21 21 18 13 21 26 28 26 22 22 24 22 21 18 15
41 37 35 32 30 29 23 10 10 4 8 23 22 20 14 4 4 8 9 9 9 15 10 6 21 20 17 15 20 22 23 25 21 19 14 22 31 30 29 28 26 23 19 15 12
45 40 37 34 30 31 28 25 5 2 7 8 16 14 12 18 14 19 11 8 15 19 19 23 14 6 13 15 16 20 19 22 23 20 22 25 33 16 2 8 13 11 10 6 8
47 43 40 36 31 26 27 22 10 7 5 7 9 8 12 11 10 24 25 15 15 19 19 20 19 24 17 17 14 15 11 14 16 14 14 11 13 21 13 10 10 7 7 3 3
51 46 45 49 19 22 17 29 18 7 5 5 8 9 12 15 4 6 10 18 26 18 12 9 10 11 20 25 18 16 15 13 13 16 17 15 9 2 6 6 6 7 4 1 2
48 47 47 45 24 25 27 33 14 5 9 10 8 10 11 11 4 8 6 6 7 14 19 20 7 5 12 8 15 6 8 10 9 9 9 15 16 10 4 4 5 5 4 3 3
47 49 49 34 11 36 38 15 4 6 6 9 9 10 14 11 10 11 13 12 8 7 10 12 23 19 13 9 8 12 9 4 7 5 8 2 9 16 6 6 0 4 6 7 6
49 46 32 23 30 41 20 4 5 11 12 5 8 12 10 14 9 12 11 10 12 9 4 7 6 17 19 21 9 18 17 6 6 10 9 6 10 4 5 3 1 4 6 7 8
43 29 17 21 30 37 7 5 9 8 15 10 13 12 10 11 4 11 14 11 8 17 8 6 6 7 9 13 16 9 17 19 16 17 12 13 18 12 8 5 7 8 10 10 9
16 10 7 26 40 24 11 8 7 8 5 14 13 11 14 16 14 13 13 7 8 14 14 1 6 8 6 7 14 13 2 7 6 5 10 13 17 13 8 9 10 11 14 12 10
10 5 6 23 25 7 5 8 9 8 5 8 15 12 12 11 13 12 7 6 7 11 13 7 6 5 7 11 12 11 16 8 7 12 12 17 15 9 5 7 13 15 15 13 13
3 2 2 14 4 1 3 9 4 12 8 5 4 11 13 11 12 13 12 8 6 8 8 10 5 12 19 13 12 16 19 21 13 16 11 17 22 3 3 5 12 16 16 14 14
2 3 3 2 5 2 0 4 6 8 15 10 14 13 9 10 7 14 12 6 7 10 11 9 7 10 13 16 16 14 21 20 21 21 27 19 20 12 5 9 13 16 19 16 15
3 2 2 1 1 6 6 2 7 3 3 5 3 7 12 16 15 8 13 5 7 7 2 2 12 14 16 12 1 6 14 17 19 16 21 22 29 30 14 12 15 18 19 17 15
1 2 1 4 5 3 10 11 5 7 2 1 1 9 12 7 17 16 18 8 6 6 6 6 15 20 24 26 26 25 22 23 22 24 22 27 26 30 19 13 16 18 18 18 13
2 3 0 2 11 7 10 9 12 4 7 5 4 5 2 5 2 3 4 4 4 1 6 2 3 11 22 26 23 21 26 29 25 25 20 19 22 20 8 10 11 17 17 15 13
2 2 1 4 4 6 7 6 9 11 3 3 7 6 6 3 3 6 4 2 4 5 6 5 4 3 7 17 19 16 23 28 29 28 25 20 22 21 15 16 11 12 15 10 11
Wind_Direction
222 224 225 228 231 237 248 264 282 301 314 325 330 334 337 331 327 316 270 193 156 352 357 314 276 320 242 215 228 266 251 254 259 239 108 166 278 238 288 272 270 266 295 355 161
222 223 225 227 230 235 243 258 276 292 307 322 328 331 337 334 325 294 210 159 106 39 351 3 321 314 220 219 199 236 252 274 344 236 233 241 280 309 277 252 265 271 269 230 209
219 221 223 225 229 234 242 250 268 289 305 319 327 330 337 340 301 67 172 174 247 355 336 313 279 288 250 225 193 196 249 289 242 254 274 278 274 258 283 282 232 276 291 269 236
218 219 221 222 225 230 236 247 259 278 299 315 326 329 337 342 310 87 201 234 294 319 284 279 253 251 254 234 206 247 246 264 292 263 266 280 297 273 271 272 288 280 278 272 240
218 218 219 220 222 225 230 237 251 267 287 308 325 336 351 286 261 264 234 267 303 283 262 231 241 250 254 270 250 246 269 271 263 260 265 272 261 269 277 283 289 293 267 257 255
218 216 217 219 218 220 223 227 240 255 277 301 324 346 302 276 189 233 265 300 237 249 194 220 283 269 276 258 247 341 282 276 275 268 267 262 265 263 258 264 278 269 273 261 257
218 216 215 216 217 218 217 221 226 242 263 287 331 352 270 256 230 257 277 257 221 245 274 266 277 246 2 257 277 280 286 277 264 261 269 273 246 236 254 257 265 262 278 284 270
215 215 214 214 213 215 211 210 217 228 250 284 332 309 261 261 255 271 260 258 246 252 248 264 253 264 246 296 246 268 262 272 88 213 228 226 275 290 301 224 264 286 274 281 277
213 213 212 211 209 207 203 200 204 207 209 309 297 290 265 284 250 232 205 201 160 159 178 205 211 228 186 238 266 220 274 270 269 236 269 229 286 299 223 269 293 284 279 275 271
212 209 207 204 204 197 189 180 173 167 185 242 253 273 233 279 195 165 154 158 135 134 134 182 201 219 218 220 244 259 250 255 262 319 272 272 273 278 280 281 274 278 277 268 262
211 207 205 200 197 186 170 134 189 200 202 209 196 255 144 196 260 207 169 170 161 211 229 207 225 228 240 233 259 283 284 272 279 280 279 283 282 287 286 278 273 269 263 257 252
210 204 201 196 192 188 181 194 208 24 258 225 245 242 253 310 261 209 176 200 206 239 221 214 245 257 261 256 243 252 267 275 282 277 281 291 288 290 279 269 268 267 263 251 238
210 201 198 193 187 185 192 204 183 218 266 237 221 236 224 216 235 239 201 221 231 241 232 239 258 61 243 240 241 241 254 275 281 293 288 289 290 277 17 259 268 255 274 235 239
211 199 194 185 182 181 199 194 163 135 274 229 206 241 191 208 248 228 218 220 223 244 239 258 267 257 247 239 232 247 245 261 276 284 282 327 291 296 278 265 248 208 205 177 311
211 199 191 186 173 181 181 179 158 94 247 165 153 134 156 187 108 158 206 216 233 216 200 226 239 235 238 242 236 262 265 262 273 280 288 264 255 255 170 237 230 183 169 141 30
207 198 193 183 177 185 176 166 136 135 236 176 151 173 155 198 191 134 148 208 237 236 230 249 247 275 251 246 235 223 234 234 249 262 263 250 229 273 358 24 139 126 163 140 105
206 198 197 177 167 169 156 141 129 196 152 172 179 177 189 172 178 178 170 174 166 171 214 233 242 231 223 223 201 209 203 224 230 216 252 154 237 245 195 168 154 159 162 147 143
198 194 179 172 161 161 147 96 193 210 199 138 163 173 189 160 200 187 175 197 217 226 174 222 207 190 210 224 207 208 210 211 250 240 280 116 244 272 92 91 186 196 163 147 156
177 160 169 166 171 161 166 191 204 210 194 169 160 184 185 185 179 182 210 217 212 205 223 202 221 168 191 206 216 189 218 230 269 282 274 259 261 240 153 184 196 184 175 167 163
155 125 169 175 176 174 200 191 218 197 185 185 198 204 192 183 184 196 182 195 208 202 231 234 266 193 178 201 213 217 205 197 220 239 239 257 266 265 196 206 201 191 184 174 168
130 145 174 179 177 197 186 189 199 200 180 184 226 238 220 183 193 190 199 151 193 188 206 223 227 192 166 205 211 206 233 227 240 234 257 271 269 36 19 222 206 197 189 183 183
134 119 173 168 172 64 146 169 172 198 186 200 283 247 241 219 207 214 230 234 161 165 186 212 264 255 255 253 252 270 233 224 233 234 239 252 264 220 276 239 209 203 195 192 188
121 109 4 342 163 151 83 148 192 174 189 187 210 214 195 209 227 227 218 138 169 184 187 175 224 258 250 237 223 237 242 252 248 246 253 252 259 280 303 238 210 211 201 199 195
117 127 4 61 296 136 142 167 166 82 125 136 210 237 221 233 223 218 222 177 180 201 112 206 235 230 249 263 52 224 245 247 245 251 256 254 265 269 227 242 228 217 211 202 197
41 182 260 178 206 160 176 158 155 160 79 110 72 216 198 216 233 231 232 162 201 165 186 212 244 247 255 261 264 260 254 247 247 251 255 265 268 262 272 262 242 227 219 212 211
119 159 264 125 130 118 170 180 174 135 153 177 170 172 158 172 214 173 159 194 197 126 201 166 236 263 257 261 260 257 253 257 252 247 253 253 262 261 275 315 273 261 229 222 236
175 41 301 133 136 150 173 170 152 124 10 142 160 144 192 184 104 90 61 92 146 179 169 176 192 233 253 259 264 252 240 247 252 250 244 240 241 258 259 251 248 262 280 312 306